Home > Weather > Dryden > Past weeks

Flag for Canada Past Weather in Dryden, Ontario, Canada — Yesterday and Last 2 Weeks

Now
63 °F

Low clouds.


Feels Like: 63 °F
Forecast: 64 / 79 °F
Wind: 9 mph from Northeast

Location: Dryden Airport

Current Time: Jun 25, 2016 at 9:09:29 AM

Latest Report: Jun 25, 2016 at 8:00 AM


Visibility: 9 mi

Pressure: 29.78 "Hg

Humidity: 94%

Dew Point: 61 °F

Location of DrydenLocation

Past Weather in Dryden — Graph

°F

Dryden Temperature Yesterday

Maximum temperature yesterday: 82 °F (at 4:00 PM)
Minimum temperature yesterday: 59 °F (at 4:00 AM)
Average temperature yesterday: 72 °F

High & Low Weather Summary for the Past Weeks

 TemperatureHumidityPressure
High82 °F (Jun 23, 4:00 PM)100% (Jun 13, 7:00 AM)30.28 "Hg (Jun 13, 7:00 AM)
Low46 °F (Jun 12, 3:01 AM)26% (Jun 23, 4:00 PM)29.62 "Hg (Jun 19, 9:00 PM)
Average63 °F69%29.96 "Hg
* Reported Jun 10 7:00 AM — Jun 25 7:57 AM, Dryden, Weather by CustomWeather, © 2016

Note: Actual official high and low records may vary slightly from our data, if they occured in-between our weather recording intervals... More about our weather records

Advertising

Dryden Weather History for the Previous 24 Hours

Scroll right to see more
 ConditionsComfort  
Time TempWeatherWind HumidityBarometerVisibility
7:57 AM
Sat, Jun 25
63 °FLow clouds.13 mph94%29.79 "Hg9 mi
7:00 AM63 °FRain. Fog.9 mph94%29.81 "Hg5 mi
6:03 AM64 °FLight rain. Fog.15 mph88%29.78 "Hg6 mi
5:00 AM64 °FLight rain. Overcast.13 mph88%29.77 "Hg9 mi
4:00 AM64 °FLight rain. Overcast.8 mph94%29.80 "Hg9 mi
3:00 AM66 °FLight rain. Mostly cloudy.9 mph83%29.81 "Hg9 mi
2:48 AM66 °FLight rain. Mostly cloudy.8 mph83%29.83 "Hg9 mi
2:00 AM66 °FLight rain. Mostly cloudy.8 mph88%29.84 "Hg9 mi
1:52 AM66 °FLight rain. Mostly cloudy.6 mph83%29.83 "Hg9 mi
1:00 AM66 °FLight rain. Mostly cloudy.23 mph83%29.79 "Hg9 mi
12:56 AM66 °FLight rain. Mostly cloudy.31 mph83%29.77 "Hg9 mi
12:00 AM72 °FMostly cloudy.7 mph61%29.89 "Hg9 mi
11:00 PM
Fri, Jun 24
72 °FMostly cloudy.6 mph57%29.86 "Hg9 mi
10:00 PM73 °FMostly cloudy.7 mph53%29.85 "Hg9 mi
9:00 PM75 °FPartly sunny.5 mph47%29.87 "Hg9 mi
8:00 PM79 °FPartly sunny.8 mph39%29.88 "Hg9 mi
7:00 PM79 °FPassing clouds.12 mph39%29.90 "Hg9 mi
6:00 PM81 °FScattered clouds.10 mph37%29.92 "Hg9 mi
5:00 PM82 °FScattered clouds.12 mph35%29.93 "Hg9 mi
4:00 PM82 °FScattered clouds.13 mph30%29.94 "Hg9 mi
3:45 PM81 °FSunny.13 mph34%29.94 "Hg9 mi
3:00 PM81 °FPassing clouds.13 mph34%29.95 "Hg9 mi
2:00 PM81 °FPassing clouds.12 mph34%29.96 "Hg9 mi
1:00 PM79 °FScattered clouds.12 mph39%29.97 "Hg9 mi
12:00 PM77 °FScattered clouds.10 mph44%29.98 "Hg9 mi
11:00 AM77 °FPartly sunny.9 mph42%29.99 "Hg9 mi
10:00 AM75 °FSunny.7 mph50%30.00 "Hg9 mi
9:00 AM72 °FSunny.5 mph61%30.01 "Hg9 mi
Weather by CustomWeather, © 2016

See weather overviewHow to use our weather pages